Regional Weather Roundup
Issued by NWS Sioux Falls, SD

Home | Current Version | Previous Version | Text Only | Print | Product List | Glossary On
Versions: 1 2 3 4 5 6 7 8 9 10 11 12 13 14 15 16 17 18 19 20 21 22 23 24 25 26 27 28 29 30 31 32 33 34 35 36 37 38 39 40 41 42 43 44 45 46 47 48 49 50
000
ASUS43 KFSD 012110
RWRFSD

WEATHER ROUNDUP FOR SE SOUTH DAKOTA/SW MINNESOTA/NW IOWA
NATIONAL WEATHER SERVICE SIOUX FALLS SD
400 PM CDT WED APR 01 2015

NOTE: "FAIR" INDICATES FEW OR NO CLOUDS BELOW 12,000 FEET WITH NO
SIGNIFICANT WEATHER AND OR OBSTRUCTIONS TO VISIBILITY.


SDZ038>040-050-052>070-012200-
SOUTHEAST SOUTH DAKOTA

CITY           SKY/WX    TMP DP  RH WIND       PRES   REMARKS
BROOKINGS      CLOUDY    72  34  25 W26G32    29.51R
CHAMBERLAIN    CLOUDY    68  39  34 NW23      29.60R
HURON          CLOUDY    66  40  38 NW21G26   29.55R
MADISON        FAIR      72  32  23 W17G29    29.52R
MITCHELL       CLOUDY    71  38  29 NW17      29.57R
SIOUX FALLS    CLOUDY    77  35  21 NW21G41   29.49F
WINNER         FAIR      71  36  27 NW24G32   29.62R
YANKTON        PTSUNNY   79  39  24 NW26G43   29.50R
$$

MNZ071-072-080-081-089-090-097-098-012200-
SOUTHWEST MINNESOTA

CITY           SKY/WX    TMP DP  RH WIND       PRES   REMARKS
FAIRMONT       PTSUNNY   82  41  23 S35G40    29.55F
JACKSON        MOSUNNY   82  34  17 S26G40    29.56F
LUVERNE        CLOUDY    82  39  21 SW32G40   29.50F
MARSHALL       PTSUNNY   81  43  26 SW33G47   29.45S
MONTEVIDEO     CLOUDY    81  43  26 W22G35    29.43S
PIPESTONE      CLOUDY    79  39  24 SW32G38   29.50F
REDWOOD FALLS  PTSUNNY   82  43  25 SW32G48   29.43F
WINDOM         MOSUNNY   84  37  18 S28G40    29.51F
WORTHINGTON    MOSUNNY   81  43  26 S31G46    29.53F
$$

IAZ001>003-012>014-020>022-031-032-NEZ013-014-SDZ071-012200-
NORTHWEST IOWA

CITY           SKY/WX    TMP DP  RH WIND       PRES   REMARKS
CHEROKEE       MOSUNNY   82  45  26 SW30G37   29.55F
DENISON        SUNNY     82  48  30 S29G41    29.57F
ESTHERVILLE    MOSUNNY   81  42  25 S33G44    29.55F
LE MARS        MOSUNNY   84  45  24 S29G38    29.53F
ORANGE CITY    PTSUNNY   84  39  20 S30G39    29.53F
SHELDON        PTSUNNY   82  46  28 SW30G44   29.52F
SIOUX CITY     MOSUNNY   86  44  23 S26G41    29.54F
SPENCER        MOSUNNY   83  42  23 S29G43    29.55F
STORM LAKE     MOSUNNY   82  46  28 S35G44    29.57F
$$

ABBREVIATIONS USED IN REMARKS
   TC - TEMPERATURE IN CELSIUS
  WCI - WIND CHILL INDEX
   HX - HEAT INDEX
  VSB - VISIBILITY



USA.gov is the U.S. government's official web portal to all federal, state and local government web resources and services.